When you browse on this site, cookies collect data to enhance your experience and personalize the content and advertising you see.
Visit our Privacy Policy to learn more. By continuing to use the site, you agree to this use of cookies and data.
  • In Hungary
  • List of Countries
  • For 7 days
  • Water Temperature
  • Weather Map
  • News
  • Weather Widgets
  • user-avatar
    Login

    Hourly Weather Natyahailivka

    Today, 13 December, Friday

    Time Temperature Precipitation Wind Pressure Humidity
    00:00 0°C° 0 mm 4 mps 751 mmHg 87%
    01:00 0°C° 0 mm 4 mps 750 mmHg 86%
    02:00 -1°C° 0 mm 4 mps 750 mmHg 85%
    03:00 -1°C° 0 mm 4 mps 750 mmHg 85%
    04:00 -1°C° 0 mm 4 mps 749 mmHg 86%
    05:00 -1°C° 0 mm 4 mps 748 mmHg 86%
    06:00 -1°C° 0 mm 4 mps 748 mmHg 85%
    07:00 -1°C° 0 mm 4 mps 748 mmHg 85%
    08:00 0°C° 0 mm 5 mps 748 mmHg 85%
    09:00 0°C° 0 mm 5 mps 748 mmHg 84%
    10:00 -1°C° 0 mm 6 mps 748 mmHg 82%
    11:00 -1°C° 0 mm 6 mps 747 mmHg 80%
    12:00 -1°C° 0 mm 6 mps 747 mmHg 80%
    13:00 -1°C° 0 mm 6 mps 746 mmHg 80%
    14:00 -1°C° 0 mm 6 mps 746 mmHg 80%
    15:00 -1°C° 0 mm 6 mps 746 mmHg 80%
    16:00 -1°C° 0 mm 6 mps 746 mmHg 79%
    17:00 -1°C° 0 mm 6 mps 745 mmHg 79%
    18:00 -1°C° 0 mm 6 mps 745 mmHg 80%
    19:00 -1°C° 0 mm 6 mps 746 mmHg 81%
    20:00 -1°C° 0 mm 6 mps 746 mmHg 82%
    21:00 -1°C° 0 mm 6 mps 746 mmHg 82%
    22:00 -2°C° 0 mm 6 mps 746 mmHg 82%
    23:00 -2°C° 0 mm 6 mps 746 mmHg 82%

    Tomorrow, 14 December, Saturday

    Time Temperature Precipitation Wind Pressure Humidity
    00:00 -2°C° 0 mm 6 mps 746 mmHg 83%
    01:00 -2°C° 0 mm 6 mps 746 mmHg 83%
    02:00 -1°C° 0 mm 5 mps 746 mmHg 84%
    03:00 -1°C° 0 mm 5 mps 745 mmHg 84%
    04:00 -1°C° 0 mm 5 mps 745 mmHg 85%
    05:00 0°C° 0 mm 5 mps 745 mmHg 85%
    06:00 0°C° 0.1 mm 5 mps 745 mmHg 86%
    07:00 0°C° 0.1 mm 5 mps 745 mmHg 88%
    08:00 0°C° 0.1 mm 5 mps 745 mmHg 89%
    09:00 0°C° 0 mm 5 mps 745 mmHg 89%
    10:00 0°C° 0 mm 4 mps 745 mmHg 89%
    11:00 +1°C° 0 mm 4 mps 745 mmHg 90%
    12:00 +1°C° 0 mm 4 mps 745 mmHg 90%
    13:00 +1°C° 0 mm 4 mps 745 mmHg 91%
    14:00 +2°C° 0 mm 3 mps 745 mmHg 91%
    15:00 +2°C° 0 mm 3 mps 745 mmHg 92%
    16:00 +3°C° 0 mm 3 mps 746 mmHg 94%
    17:00 +3°C° 0 mm 3 mps 746 mmHg 95%
    18:00 +3°C° 0 mm 3 mps 746 mmHg 95%
    19:00 +3°C° 0 mm 4 mps 746 mmHg 96%
    20:00 +3°C° 0 mm 4 mps 746 mmHg 96%
    21:00 +4°C° 0.1 mm 4 mps 746 mmHg 96%
    22:00 +5°C° 0.1 mm 4 mps 746 mmHg 96%
    23:00 +5°C° 0.1 mm 5 mps 746 mmHg 96%

    Day after tomorrow, 15 December, Sunday

    Time Temperature Precipitation Wind Pressure Humidity
    00:00 +5°C° 0.4 mm 5 mps 747 mmHg 96%
    01:00 +5°C° 0.4 mm 5 mps 747 mmHg 95%
    02:00 +6°C° 0.4 mm 5 mps 747 mmHg 95%
    03:00 +6°C° 0.3 mm 4 mps 747 mmHg 95%
    04:00 +6°C° 0.3 mm 4 mps 746 mmHg 96%
    05:00 +6°C° 0.3 mm 4 mps 746 mmHg 96%
    06:00 +5°C° 0.4 mm 3 mps 747 mmHg 95%
    07:00 +5°C° 0.4 mm 3 mps 747 mmHg 94%
    08:00 +5°C° 0.4 mm 3 mps 748 mmHg 93%
    09:00 +5°C° 0 mm 3 mps 748 mmHg 88%
    10:00 +6°C° 0 mm 4 mps 749 mmHg 82%
    11:00 +6°C° 0 mm 4 mps 749 mmHg 76%
    12:00 +6°C° 0 mm 4 mps 750 mmHg 74%
    13:00 +6°C° 0 mm 4 mps 750 mmHg 71%
    14:00 +7°C° 0 mm 3 mps 751 mmHg 68%
    15:00 +5°C° 0 mm 3 mps 751 mmHg 70%
    16:00 +4°C° 0 mm 3 mps 752 mmHg 72%
    17:00 +5°C° 0 mm 2 mps 752 mmHg 74%
    18:00 +4°C° 0 mm 2 mps 753 mmHg 75%
    19:00 +3°C° 0 mm 3 mps 753 mmHg 76%
    20:00 +3°C° 0 mm 3 mps 754 mmHg 77%
    21:00 +3°C° 0 mm 3 mps 754 mmHg 77%
    22:00 +3°C° 0 mm 3 mps 754 mmHg 77%
    23:00 +3°C° 0 mm 3 mps 754 mmHg 77%

    16 December, Monday

    Time Temperature Precipitation Wind Pressure Humidity
    00:00 +3°C° 0 mm 4 mps 754 mmHg 78%
    01:00 +3°C° 0 mm 4 mps 754 mmHg 78%
    02:00 +3°C° 0 mm 4 mps 755 mmHg 79%
    03:00 +3°C° 0 mm 4 mps 755 mmHg 78%
    04:00 +3°C° 0 mm 4 mps 755 mmHg 78%
    05:00 +3°C° 0 mm 4 mps 755 mmHg 77%
    06:00 +3°C° 0 mm 3 mps 755 mmHg 77%
    07:00 +3°C° 0 mm 3 mps 755 mmHg 77%
    08:00 +3°C° 0 mm 3 mps 755 mmHg 77%
    09:00 +3°C° 0 mm 3 mps 755 mmHg 75%
    10:00 +4°C° 0 mm 4 mps 756 mmHg 73%
    11:00 +5°C° 0 mm 4 mps 756 mmHg 70%
    12:00 +5°C° 0 mm 4 mps 756 mmHg 70%
    13:00 +7°C° 0 mm 3 mps 755 mmHg 70%
    14:00 +7°C° 0 mm 3 mps 755 mmHg 70%
    15:00 +5°C° 0 mm 3 mps 755 mmHg 74%
    16:00 +6°C° 0 mm 2 mps 756 mmHg 78%
    17:00 +5°C° 0 mm 2 mps 756 mmHg 82%
    18:00 +5°C° 0 mm 2 mps 756 mmHg 82%
    19:00 +4°C° 0 mm 2 mps 756 mmHg 82%
    20:00 +5°C° 0 mm 1 mps 756 mmHg 82%
    21:00 +5°C° 0 mm 1 mps 756 mmHg 82%
    22:00 +5°C° 0 mm 1 mps 756 mmHg 83%
    23:00 +5°C° 0 mm 1 mps 756 mmHg 83%

    17 December, Tuesday

    Time Temperature Precipitation Wind Pressure Humidity
    00:00 +5°C° 0 mm 1 mps 756 mmHg 83%
    01:00 +5°C° 0 mm 1 mps 756 mmHg 83%
    02:00 +4°C° 0 mm 1 mps 756 mmHg 84%
    03:00 +3°C° 0 mm 2 mps 756 mmHg 84%
    04:00 +3°C° 0 mm 2 mps 756 mmHg 85%
    05:00 +3°C° 0 mm 2 mps 756 mmHg 85%
    06:00 +3°C° 0 mm 2 mps 755 mmHg 87%
    07:00 +3°C° 0 mm 2 mps 755 mmHg 88%
    08:00 +3°C° 0 mm 2 mps 755 mmHg 90%
    09:00 +3°C° 0 mm 2 mps 756 mmHg 88%
    10:00 +3°C° 0 mm 3 mps 756 mmHg 86%
    11:00 +4°C° 0 mm 3 mps 756 mmHg 84%
    12:00 +4°C° 0 mm 3 mps 755 mmHg 84%
    13:00 +5°C° 0 mm 3 mps 755 mmHg 84%
    14:00 +5°C° 0 mm 3 mps 754 mmHg 84%
    15:00 +4°C° 0 mm 3 mps 754 mmHg 87%
    16:00 +4°C° 0 mm 3 mps 754 mmHg 90%
    17:00 +3°C° 0 mm 3 mps 754 mmHg 93%
    18:00 +3°C° 0 mm 3 mps 754 mmHg 93%
    19:00 +3°C° 0 mm 3 mps 754 mmHg 92%
    20:00 +3°C° 0 mm 3 mps 754 mmHg 92%
    21:00 +3°C° 0 mm 3 mps 754 mmHg 92%
    22:00 +3°C° 0 mm 3 mps 755 mmHg 93%
    23:00 +4°C° 0 mm 2 mps 755 mmHg 93%

    18 December, Wednesday

    Time Temperature Precipitation Wind Pressure Humidity
    00:00 +3°C° 0 mm 3 mps 754 mmHg 93%
    01:00 +3°C° 0 mm 3 mps 754 mmHg 93%
    02:00 +3°C° 0 mm 3 mps 754 mmHg 93%
    03:00 +2°C° 0 mm 3 mps 754 mmHg 94%
    04:00 +2°C° 0 mm 3 mps 753 mmHg 94%
    05:00 +2°C° 0 mm 3 mps 753 mmHg 95%
    06:00 +2°C° 0 mm 3 mps 753 mmHg 94%
    07:00 +2°C° 0 mm 3 mps 753 mmHg 94%
    08:00 +2°C° 0 mm 3 mps 753 mmHg 94%
    09:00 +3°C° 0 mm 3 mps 753 mmHg 89%
    10:00 +4°C° 0 mm 3 mps 753 mmHg 84%
    11:00 +5°C° 0 mm 3 mps 753 mmHg 79%
    12:00 +7°C° 0 mm 3 mps 753 mmHg 75%
    13:00 +7°C° 0 mm 3 mps 752 mmHg 71%
    14:00 +8°C° 0 mm 3 mps 752 mmHg 67%
    15:00 +7°C° 0 mm 3 mps 752 mmHg 68%
    16:00 +7°C° 0 mm 3 mps 752 mmHg 70%
    17:00 +5°C° 0 mm 3 mps 752 mmHg 72%
    18:00 +5°C° 0 mm 3 mps 752 mmHg 71%
    19:00 +5°C° 0 mm 3 mps 752 mmHg 71%
    20:00 +5°C° 0 mm 3 mps 752 mmHg 70%
    21:00 +4°C° 0 mm 3 mps 752 mmHg 71%
    22:00 +4°C° 0 mm 3 mps 752 mmHg 71%
    23:00 +4°C° 0 mm 3 mps 752 mmHg 72%
    Show more